Regional Weather Roundup
Issued by NWS

Home | Current Version | Previous Version | Graphics & Text | Print | Product List | Glossary On
Versions: 1 2 3 4 5 6 7 8 9 10 11 12 13 14 15 16 17 18 19 20 21 22 23 24 25 26 27 28 29 30 31 32 33 34 35 36 37 38 39 40 41 42 43 44 45 46 47 48 49 50
000
ASUS43 KDTX 292101
RWRMI
MICHIGAN HOURLY REGIONAL WEATHER ROUNDUP
NATIONAL WEATHER SERVICE DETROIT/PONTIAC MI
400 PM EST THU JAN 29 2015

NOTE: "FAIR" INDICATES FEW OR NO CLOUDS BELOW 12,000 FEET WITH NO
SIGNIFICANT WEATHER AND/OR OBSTRUCTION TO VISIBILITY.

MIZ047>049-052>055-059>063-066>070-074>076-081>083-292200-
SOUTHEAST LOWER MICHIGAN

CITY           SKY/WX    TMP DP  RH WIND       PRES   REMARKS
ADRIAN         LGT SNOW  33  29  85 NW9       29.81R FOG     WCI  25
ALMA           CLOUDY    33  27  80 NW12G20   29.83R WCI  24
ANN ARBOR      LGT SNOW  33  29  85 NW13      29.78R FOG     WCI  24
BAD AXE        LGT SNOW  28  26  94 NW7       29.76R WCI  21
CARO           LGT SNOW  30  27  87 NW7       29.77R WCI  23
DETROIT CITY   SNOW      33  29  85 NW7       29.76R VSB 1/4 WCI  27
DETROIT        LGT SNOW  32  30  92 W10       29.78R VSB 3/4 WCI  24
FLINT          LGT SNOW  32  27  81 NW12      29.79R VSB 1   WCI  23
GROSSE ILE     LGT SNOW  34  30  86 NW9       29.76R WCI  26
HILLSDALE      LGT SNOW  33  31  93 NW13G22   29.81R WCI  24
HOWELL         LGT SNOW  31  28  89 NW14G20   29.79R WCI  21

CITY           SKY/WX    TMP DP  RH WIND       PRES   REMARKS
JACKSON        LGT SNOW  32  29  88 NW10G17   29.82R VSB 1   WCI  24
LAMBERTVILLE   LGT SNOW  34  32  93 NW8       29.79R VSB 1   WCI  27
LANSING        CLOUDY    31  27  85 NW9G22    29.83R FOG     WCI  23
LAPEER         LGT SNOW  29  27  92 NW8       29.76R WCI  22
MASON          CLOUDY    31  28  87 NW9G17    29.81R FOG     WCI  23
MONROE         LGT SNOW  34  30  86 NW10      29.77R WCI  26
MT. CLEMENS    LGT SNOW  32  30  93 NW10      29.74R VSB 5/8 WCI  24
PONTIAC        LGT SNOW  30  27  88 NW14      29.75R FOG     WCI  19
PORT HOPE        N/A     29  25  85 NW8       29.74R WCI  21
PORT HURON     SNOW      30  28  93 NW8       29.75R VSB 1/2 WCI  23
TRI CITIES     CLOUDY    34  26  72 NW12      29.80R WCI  25
SAGINAW HB     CLOUDY    32  28  86 NW12      29.79R WCI  23
$$
MIZ043>046-050>051-056>058-064>065-071>073-077>080-292200-
SOUTHWEST LOWER MICHIGAN

CITY           SKY/WX    TMP DP  RH WIND       PRES   REMARKS
BATTLE CREEK   CLOUDY    33  27  78 NW14      29.86R HAZE    WCI  23
BENTON HARBOR  CLOUDY    32  30  92 NW12G23   29.95R FOG     WCI  23
BIG RAPIDS     CLOUDY    32  29  90 NW14G21   29.84R FOG     WCI  22
COLDWATER      CLOUDY    32  29  89 NW10      29.84R WCI  24
FREMONT        CLOUDY    32  26  80 N20G30    29.88R WCI  20
HOLLAND        CLOUDY    35  27  72 NW16G22   29.92R WCI  25
GRAND RAPIDS   LGT SNOW  32  27  81 NW18      29.88R WCI  20
IONIA          CLOUDY    33  28  80 NW13G21   29.84R WCI  24
KALAMAZOO      CLOUDY    33  27  78 NW13G24   29.88R HAZE    WCI  24
LUDINGTON      CLOUDY    33  27  77 NW15G25   29.92R WCI  23
MARSHALL       CLOUDY    31  28  88 NW12G17   29.84R WCI  22
MOUNT PLEASANT CLOUDY    32  26  79 NW12G20   29.82R WCI  23
MUSKEGON       CLOUDY    34  26  72 N23G35    29.93R WCI  22
SOUTH HAVEN    CLOUDY    35  29  80 N15G23    29.93R WCI  25
$$
MIZ016>042-292200-
NORTHERN LOWER MICHIGAN

CITY           SKY/WX    TMP DP  RH WIND       PRES   REMARKS
ALPENA         CLOUDY    30  25  81 NW8       29.76R WCI  22
BEAVER ISLAND  CLOUDY    27  23  85 NW12G21   29.88R WCI  16
BELLAIRE       CLOUDY    31  25  77 NW10G22   29.87R WCI  22
CADILLAC       CLOUDY    29  23  77 NW17G35   29.82R WCI  17
CHARLEVOIX     CLOUDY    29  25  86 NW20G32   29.90R FOG     WCI  16
FRANKFORT      CLOUDY    31  26  80 N13G23    29.91R WCI  21
GAYLORD        CLOUDY    27  26  96 NW13G23   29.78R WCI  16
GRAYLING       LGT SNOW  29  27  92 NW18G25   29.80R WCI  17
HARBOR SPRINGS CLOUDY    29  25  84 W18G25    29.83R WCI  17
HOUGHTON LAKE  LGT SNOW  29  26  89 NW10      29.79R FOG     WCI  20
MANISTEE       CLOUDY    32  23  69 N13G23    29.92R WCI  22
OSCODA         CLOUDY    30  26  83 NW12      29.75R WCI  21
PELLSTON       CLOUDY    29  26  89 NW26G33   29.82R WCI  14
ROGERS CITY    CLOUDY    30  28  95 NW8       29.77R FOG     WCI  22
TRAVERSE CITY  CLOUDY    32  22  66 N20G36    29.88R WCI  20
$$
MIZ007>008-015-292200-
EASTERN UPPER MICHIGAN

CITY           SKY/WX    TMP DP  RH WIND       PRES   REMARKS
KINROSS        CLOUDY    28  27  93 NW21G30   29.76R WCI  15
MACKINAC ISLAN CLOUDY    30  28  90 NW17G30   29.79R WCI  18
NEWBERRY       CLOUDY    23  20  91 NW22G30   29.84R FOG     WCI   7
S. S. MARIE    LGT SNOW  29  26  89 W12       29.76R FOG     WCI  19
MUNISING         N/A     22  16  78 NW29G44   29.97R WCI   4
$$
MIZ004>006-011>014-085-292200-
CENTRAL UPPER MICHIGAN

CITY           SKY/WX    TMP DP  RH WIND       PRES   REMARKS
MANISTIQUE     LGT SNOW  23  19  86 NW23G33   29.91R WCI   7
ESCANABA       CLOUDY    27  19  74 N15G23    29.95R WCI  15
MENOMINEE      CLOUDY    32  19  59 N20G30    29.96R WCI  20
SAWYER-GWINN   LGT SNOW  21  18  86 N20G28    29.96R VSB 3/4 WCI   6
$$
MIZ001>003-009>011-084-292200-
WESTERN UPPER MICHIGAN

CITY           SKY/WX    TMP DP  RH WIND       PRES   REMARKS
IRON MOUNTAIN  MIX PCPN  26  17  68 NW26G37   29.97R WCI  10
HOUGHTON       CLOUDY    18   9  68 N22G31    30.07R WCI   1
COPPER HARBOR    N/A     20  14  77 NE29G38   30.08R WCI   1
IRONWOOD       CLOUDY    21  14  73 N15G28    30.11R WCI   8
$$

ABBREVIATIONS USED IN REMARKS
   TC - TEMPERATURE IN CELSIUS
  WCI - WIND CHILL INDEX
   HX - HEAT INDEX
  VSB - VISIBILITY




USA.gov is the U.S. government's official web portal to all federal, state and local government web resources and services.